SCP
0 0 0 0 0 0 0 0 0 0 0 0 0 0 0 0 0 0 0 0 1 1 1 1 1 1 1 1 1 1 1 1 1 1 1 1 1 1 1 1 0 0 0 0
0 0 0 0 0 0 0 0 0 0 0 0 0 0 0 0 0 0 0 0 1 1 1 1 1 1 1 1 1 1 1 1 1 1 1 1 1 1 1 1 1 0 0 0
0 0 0 0 0 0 0 0 0 0 0 0 0 0 0 0 0 0 0 0 1 1 1 1 1 1 1 1 1 1 1 1 1 1 1 1 1 1 1 1 1 1 0 0
0 0 0 0 0 0 0 0 0 0 0 0 0 0 0 0 0 0 0 0 0 1 1 1 1 1 1 1 1 1 1 1 1 1 1 1 1 1 1 1 1 1 0 0
0 0 0 0 0 0 0 0 0 0 0 0 0 0 0 0 0 0 0 0 0 1 1 1 1 1 1 1 1 1 1 1 1 1 1 1 1 1 1 1 1 1 0 0
0 0 0 0 0 0 0 0 0 0 0 0 0 0 0 0 0 0 0 0 1 1 1 1 1 1 1 1 1 1 1 1 1 1 1 1 1 1 1 1 1 1 0 0
0 0 0 0 0 0 0 0 0 0 0 0 0 0 0 0 0 0 0 0 1 1 1 1 1 1 1 1 1 1 1 1 1 1 1 1 1 1 1 1 1 1 1 0
0 0 0 0 0 0 0 0 0 0 0 0 0 0 0 0 0 0 0 0 1 1 1 1 1 1 1 1 1 1 1 1 1 1 1 1 1 1 1 1 1 1 1 1
0 0 0 0 0 0 0 0 0 0 0 0 0 0 0 0 0 0 0 0 0 1 1 1 1 1 1 1 1 1 1 1 1 1 1 1 1 1 1 1 1 1 1 1
0 0 0 0 0 0 0 0 0 0 0 0 0 0 0 0 0 0 0 0 0 1 1 1 1 1 1 1 1 1 1 1 1 1 1 1 1 1 1 1 1 1 1 1
0 0 0 0 0 0 0 0 0 0 0 0 0 0 0 0 0 0 0 0 0 1 1 1 1 1 1 1 1 1 1 1 1 1 1 1 1 1 1 1 0 0 0 0
0 0 0 0 0 0 0 0 0 0 0 0 0 0 0 0 0 0 0 0 0 1 1 1 1 1 1 1 1 1 1 1 1 1 1 1 1 1 1 0 0 0 0 0
0 0 0 0 0 0 0 0 0 0 0 0 0 0 0 0 0 0 0 0 0 1 1 1 1 1 1 1 1 1 1 1 1 1 1 1 1 1 0 0 0 0 0 0
0 0 0 0 0 0 0 0 0 0 0 0 0 0 0 0 0 0 0 0 0 0 1 1 1 1 1 1 1 1 1 1 1 1 1 1 1 1 0 0 0 0 0 0
0 0 0 0 0 0 0 0 0 0 0 0 0 0 0 1 1 1 0 0 0 0 1 1 1 1 0 0 1 1 1 0 0 0 0 0 0 0 0 0 0 0 0 0
0 0 0 0 0 0 0 0 0 0 0 0 0 0 1 1 1 1 0 0 0 0 0 1 1 0 0 0 0 0 0 0 0 0 0 0 0 0 0 0 0 0 0 0
0 0 0 0 0 0 0 0 0 0 0 0 0 0 0 0 0 0 0 0 0 0 0 0 1 0 0 0 0 0 0 0 0 0 0 0 0 0 0 0 0 0 0 0
0 0 0 0 0 0 0 0 0 0 0 0 0 0 0 0 0 0 0 0 0 0 0 0 0 0 0 0 0 0 0 0 0 0 0 0 0 0 0 0 0 0 0 0
0 0 0 0 0 0 0 0 0 0 0 0 0 0 0 0 0 0 0 0 0 0 0 0 0 0 0 0 0 0 0 0 0 0 0 0 0 0 0 0 0 0 0 0
0 0 0 0 0 0 0 0 0 0 0 0 0 0 0 0 0 0 0 0 0 0 0 0 0 0 0 0 0 0 0 0 0 0 0 0 0 0 0 0 0 0 0 0
0 0 0 0 0 0 0 0 0 0 0 0 0 0 0 0 0 0 0 0 0 0 0 0 0 0 0 0 0 0 0 0 0 0 0 0 0 0 0 0 0 0 0 0
0 0 0 0 0 0 0 0 0 0 0 0 0 0 0 0 0 0 0 0 0 0 0 0 0 0 0 0 0 0 0 0 0 0 0 0 0 0 0 0 0 0 0 0
0 0 0 0 0 0 0 0 0 0 0 0 0 0 0 0 0 0 0 0 0 0 0 0 0 0 0 0 0 0 0 0 0 0 0 0 0 0 0 0 0 0 0 0
0 0 0 0 0 0 0 0 0 0 0 0 0 0 0 0 0 0 0 0 0 0 0 0 0 0 0 0 0 0 0 0 0 0 0 0 0 0 0 0 0 0 0 0
0 0 0 0 0 0 0 0 0 0 0 0 0 0 0 0 0 0 0 0 0 0 0 0 0 0 0 0 0 0 0 0 0 0 0 0 0 0 0 0 0 0 0 0
0 0 0 0 0 0 0 0 0 0 0 0 0 0 0 0 0 0 0 0 0 0 0 0 0 0 0 0 0 0 0 0 0 0 0 0 0 0 0 0 0 0 0 0
0 0 0 0 0 0 0 0 0 0 0 0 0 0 0 0 0 0 0 0 0 0 0 0 0 0 0 0 0 0 0 0 0 0 0 0 0 0 0 0 0 0 0 0
Wind_Speed
8 6 6 8 9 10 11 10 10 7 6 2 2 1 1 1 1 1 2 1 1 1 2 3 3 3 3 4 5 5 6 6 5 5 5 4 4 4 4 4 4 3 4 3
9 8 8 9 9 9 9 9 9 8 5 1 0 0 2 2 1 0 1 1 0 1 2 2 3 3 4 4 5 5 5 5 5 5 5 4 4 4 4 4 3 3 4 4
9 7 10 12 9 9 8 7 8 8 3 1 2 2 2 1 1 1 2 2 1 0 1 2 2 3 3 4 4 5 5 5 5 5 5 4 5 4 4 4 4 4 4 3
7 8 13 3 1 5 6 5 4 3 0 1 1 1 1 1 2 2 3 3 2 1 0 1 1 2 2 3 3 4 4 4 4 5 5 5 5 4 4 4 4 4 3 3
8 11 10 6 5 5 7 5 2 2 2 2 2 3 2 2 3 3 3 2 2 1 1 1 1 2 3 3 3 3 3 4 4 4 5 5 4 4 4 3 4 4 4 3
9 11 11 3 4 2 6 7 3 2 3 3 3 4 1 4 4 3 3 2 2 1 1 1 2 2 3 3 3 3 3 3 3 3 4 4 4 4 3 3 4 4 3 3
11 11 5 1 2 5 8 1 3 2 2 2 1 3 2 2 3 3 3 2 2 1 1 1 2 3 3 3 2 2 2 1 1 2 3 3 3 3 3 3 3 3 3 3
9 12 5 3 4 3 2 3 2 2 1 0 1 1 2 2 2 2 3 3 2 1 1 1 2 2 3 2 1 1 2 1 1 2 2 2 3 2 3 3 4 4 3 4
4 2 3 2 1 2 1 2 2 1 2 1 1 1 1 2 2 2 3 2 2 1 1 1 1 1 2 1 1 2 2 2 2 2 1 2 3 3 3 3 3 3 3 3
4 2 1 1 1 1 1 2 2 2 1 0 1 1 2 2 2 2 2 2 2 2 1 1 1 1 1 1 1 2 2 2 2 2 2 2 2 2 2 2 3 3 3 3
5 4 3 2 1 0 1 1 1 1 0 1 1 0 1 1 1 1 1 2 2 1 1 1 0 0 0 1 1 2 2 2 2 2 2 2 2 2 3 2 2 3 3 3
4 2 3 2 1 0 1 1 1 1 1 1 1 1 0 0 0 1 1 1 1 1 1 1 0 0 1 1 1 2 2 2 2 2 1 2 2 2 1 2 1 3 4 4
4 2 2 2 2 2 2 2 2 1 2 1 1 1 1 1 1 1 1 1 1 1 1 1 1 1 1 1 2 2 2 2 2 2 2 3 3 3 3 2 2 3 4 4
3 3 4 3 2 2 2 2 1 1 2 2 1 2 1 1 1 1 1 1 1 1 1 1 1 1 1 1 2 2 3 2 3 3 3 3 3 4 4 4 3 3 3 5
4 5 4 2 2 2 2 2 2 2 2 2 1 2 2 2 2 1 1 1 2 2 1 1 2 2 2 2 2 3 3 2 2 3 3 3 3 4 4 4 4 3 3 2
4 4 4 4 4 3 3 3 3 3 2 2 2 1 1 2 1 1 1 1 2 2 2 2 2 2 3 3 3 3 2 1 3 3 4 3 3 4 4 4 4 4 4 3
5 5 5 5 5 4 4 3 3 3 3 3 2 1 1 1 1 1 1 1 2 2 2 2 2 2 2 3 4 3 3 2 3 4 4 3 4 4 4 4 4 4 4 2
5 5 5 5 4 3 3 3 3 3 3 2 2 1 1 1 1 1 1 1 1 2 2 2 2 3 3 3 3 4 3 3 3 4 4 4 4 4 4 4 5 5 5 3
5 5 4 4 5 4 4 4 4 4 3 2 2 2 1 1 1 1 1 2 2 2 2 2 2 4 3 3 3 3 4 4 4 3 4 3 4 4 4 4 5 5 4 4
4 4 4 4 5 4 4 4 4 3 3 3 3 2 2 2 1 2 2 2 2 2 2 3 3 3 3 2 4 4 5 5 4 4 4 4 4 4 4 4 4 4 4 4
4 4 4 4 4 4 4 4 4 4 3 4 4 3 3 2 2 3 3 2 1 2 3 3 4 3 3 3 5 5 5 5 5 5 5 4 4 4 4 4 4 4 4 4
3 3 3 4 4 3 3 3 3 4 4 4 4 3 3 3 3 3 3 2 2 2 3 3 3 2 3 5 5 5 5 5 5 5 5 4 4 4 4 4 4 4 4 3
2 2 2 2 3 3 3 3 3 3 3 4 4 4 4 3 3 3 2 1 2 2 4 3 2 1 4 5 4 4 5 5 4 4 4 4 4 4 4 4 4 3 3 3
1 1 1 2 2 3 3 3 3 3 3 4 4 4 4 3 3 2 2 1 2 3 4 2 2 4 6 5 4 4 4 4 4 4 4 4 4 4 4 5 4 4 4 5
1 1 1 2 2 2 3 3 3 4 4 3 3 3 3 3 3 2 2 2 2 4 4 3 5 5 6 4 4 4 4 3 4 4 5 4 4 4 4 5 5 5 5 4
1 1 1 2 1 1 2 2 2 3 2 2 2 2 2 2 2 2 2 3 4 4 4 3 3 4 4 4 4 4 4 3 4 4 5 5 5 5 5 5 6 5 5 5
1 1 1 1 1 1 1 1 1 1 2 2 2 2 2 2 2 2 3 3 3 4 3 3 3 3 3 3 4 4 4 4 4 4 4 4 4 5 5 6 5 5 5 5
Wind_Direction
265 268 249 239 231 223 233 259 269 265 257 255 254 263 171 122 117 88 68 76 107 145 137 147 146 154 160 167 166 170 177 182 184 189 191 190 193 201 207 215 216 220 230 231
241 236 239 241 236 230 233 246 253 258 259 1 43 192 163 160 163 55 19 6 348 184 165 162 164 166 168 170 169 173 183 187 185 189 190 188 190 198 205 213 223 228 229 233
240 220 234 233 230 232 228 240 254 255 262 182 184 182 189 202 230 309 319 323 328 280 197 182 184 177 180 180 176 176 183 190 187 187 192 197 199 201 210 211 217 229 235 241
244 224 238 234 211 239 233 230 258 281 247 200 180 189 240 351 351 347 344 345 352 356 68 165 170 170 179 175 181 183 183 190 190 191 197 201 203 210 218 221 219 224 230 234
247 238 234 202 195 216 229 218 241 228 172 158 167 188 163 40 14 350 345 355 351 351 59 125 142 157 160 168 177 182 182 194 198 199 202 206 211 217 219 219 227 232 227 228
242 250 249 214 161 192 242 218 160 176 168 175 214 234 115 36 16 8 8 13 6 17 83 122 144 160 169 174 174 183 189 197 194 201 211 216 215 217 219 218 225 235 229 229
241 247 247 51 131 198 232 220 122 164 181 218 269 337 48 29 22 22 19 24 24 43 89 120 152 159 171 173 179 184 181 179 190 204 215 212 212 214 217 223 227 240 240 238
240 245 234 86 173 230 24 64 101 115 133 103 58 56 66 48 40 31 27 32 34 42 70 102 146 163 174 182 182 166 168 173 187 211 226 193 195 205 216 228 229 229 233 240
277 307 53 64 80 55 24 79 73 72 75 88 81 81 67 49 39 33 27 26 21 29 73 96 128 172 183 179 162 163 169 182 186 189 204 216 218 214 217 225 245 245 240 242
253 215 169 141 132 83 58 58 53 53 70 108 72 64 56 47 41 32 25 26 28 37 59 75 97 170 168 132 152 177 189 199 194 198 200 209 239 240 241 244 256 264 264 266
237 225 232 216 253 76 77 44 39 15 61 129 119 74 52 38 43 33 19 27 17 12 31 76 87 218 207 182 199 211 212 226 230 224 208 212 232 273 266 262 275 270 278 276
255 221 255 251 331 359 329 312 309 263 235 209 201 190 167 81 16 358 352 10 354 339 341 347 325 290 288 257 241 244 243 246 254 251 237 236 231 244 351 297 198 227 257 275
275 281 292 285 297 295 289 284 288 258 232 228 205 197 201 237 263 292 301 312 330 338 329 309 301 305 298 275 256 262 271 275 274 267 261 251 245 250 255 253 230 231 234 238
239 243 248 250 259 273 269 265 256 233 224 216 203 207 216 239 260 266 283 311 319 314 310 306 307 320 317 294 273 275 277 262 262 261 261 259 253 258 264 268 265 265 235 216
239 247 240 231 228 233 237 225 220 215 204 206 205 224 243 259 269 278 290 303 302 292 307 315 321 331 331 305 281 274 279 280 278 280 270 265 268 269 270 271 273 274 275 233
230 222 215 219 224 231 236 235 233 226 220 213 217 238 272 284 287 287 282 276 283 301 316 315 320 329 323 305 290 274 266 276 275 271 266 266 265 268 272 273 272 270 270 277
224 221 224 230 234 240 248 252 249 238 227 225 230 240 239 253 265 283 300 300 303 308 310 311 318 328 306 293 288 286 286 257 245 262 265 267 270 272 273 272 273 276 273 268
242 245 244 243 244 247 251 252 244 237 229 225 229 219 203 231 277 301 309 311 312 316 326 327 332 312 292 292 293 294 284 272 258 266 270 267 275 273 272 275 277 279 282 256
245 242 240 239 242 241 239 235 232 232 232 225 212 218 228 252 276 285 291 289 285 294 340 342 309 281 288 305 302 278 277 276 274 272 270 265 261 269 274 275 278 281 281 281
244 237 233 233 237 234 228 221 222 230 233 221 218 219 229 248 262 271 269 271 294 331 332 322 292 288 284 289 288 282 279 277 276 272 267 265 266 271 272 275 279 280 280 277
240 233 227 223 223 221 218 217 220 224 224 220 223 230 239 253 259 263 263 266 296 305 292 268 265 276 284 304 271 274 273 274 276 277 272 270 273 274 274 278 282 283 283 283
246 234 229 223 215 205 202 205 206 214 221 224 231 238 239 240 242 249 261 280 283 282 275 278 287 348 334 295 277 282 280 277 274 272 274 277 276 273 274 281 284 288 289 288
267 245 229 221 204 184 186 202 203 210 217 225 229 234 242 259 264 264 269 276 275 294 288 300 340 328 289 273 276 282 283 282 280 281 282 280 279 279 277 274 277 284 286 284
296 258 221 207 191 186 197 211 219 218 220 229 234 235 236 241 251 263 286 252 255 269 284 291 253 256 261 264 270 274 276 280 284 286 282 278 274 272 272 271 273 276 277 277
286 247 216 210 208 205 202 205 210 216 222 225 231 231 240 252 265 275 275 263 253 260 272 245 217 231 254 271 274 276 278 283 288 291 287 287 284 282 276 276 277 277 275 275
243 236 226 236 246 240 219 213 214 215 222 231 242 241 241 241 244 243 245 252 259 261 274 277 261 245 261 276 280 281 281 274 267 269 280 287 284 282 280 282 281 277 276 278
266 258 245 241 245 259 260 244 238 244 254 257 261 267 270 261 255 251 255 263 267 272 278 279 280 273 272 280 285 284 281 283 286 290 289 286 286 285 283 282 281 278 276 275